Weather History for KVTA - June, 2013

Change the Weather History Date:

Friday, June 14, 2013

  Actual Average Record
Temperature  
Mean Temperature 65 °F -  
Max Temperature 77 °F 83 °F 94 °F (1967)
Min Temperature 55 °F 57 °F 42 °F (1978)
Growing Degree Days 15 (Base 50)    
Moisture  
Dew Point 55 °F    
Average Humidity 69    
Maximum Humidity 93    
Minimum Humidity 51    
Precipitation  
Precipitation 0.00 in - - ()
Sea Level Pressure  
Sea Level Pressure 29.98 in    
Wind  
Wind Speed 4 mph (North)    
Max Wind Speed 13 mph    
Max Gust Speed 20 mph    
Visibility 10 miles    
Events      
Averages and records for this station are not official NWS values.
T = Trace of Precipitation, MM = Missing Value Source: NWS Daily Summary

Daily Weather History Graph

Daily Weather History Graph

Search for Another Location

Airport or City:

Trip Planner

Search our weather history database for the weather conditions in past years. The results will help you decide how hot, cold, wet, or windy it might be!

Date:

Astronomy

Jun. 14, 2013 Rise Set
Actual Time 6:00 AM EDT 9:00 PM EDT
Civil Twilight 5:27 AM EDT 9:33 PM EDT
Nautical Twilight 4:45 AM EDT 10:14 PM EDT
Astronomical Twilight 3:57 AM EDT 11:03 PM EDT
Moon 11:34 AM EDT (6/14) 12:05 AM EDT (6/14)
Length of Visible Light 16h 05m
Length of Day
14h 59m
Waxing Crescent, 30% of the Moon is Illuminated
Jun 14
Waxing Crescent
Jun 16
First Quarter
Jun 23
Full
Jun 30
Last Quarter
Jul 8
New

Hourly Weather History & Observations

Time (EDT) Temp. Dew Point Humidity Pressure Visibility Wind Dir Wind Speed Gust Speed Precip Events Conditions
12:54 AM 63.0 °F 54.0 °F 72% 29.89 in 10.0 mi North 3.5 mph - N/A   Clear
1:54 AM 59.0 °F 53.1 °F 81% 29.89 in 10.0 mi Calm Calm - N/A   Clear
2:54 AM 60.1 °F 53.1 °F 78% 29.89 in 10.0 mi Calm Calm - N/A   Clear
3:54 AM 57.0 °F 53.1 °F 87% 29.89 in 10.0 mi West 3.5 mph - N/A   Clear
4:54 AM 55.0 °F 53.1 °F 93% 29.90 in 10.0 mi Calm Calm - N/A   Clear
5:54 AM 55.9 °F 53.1 °F 90% 29.91 in 10.0 mi Calm Calm - N/A   Clear
6:54 AM 57.9 °F 55.0 °F 90% 29.94 in 10.0 mi Calm Calm - N/A   Clear
7:54 AM 63.0 °F 57.0 °F 81% 29.95 in 10.0 mi Variable 4.6 mph - N/A   Clear
8:54 AM 66.0 °F 57.0 °F 73% 29.98 in 10.0 mi North 8.1 mph - N/A   Clear
9:54 AM 68.0 °F 55.9 °F 65% 29.99 in 10.0 mi North 12.7 mph 18.4 mph N/A   Clear
10:54 AM 70.0 °F 55.0 °F 59% 30.01 in 10.0 mi NNW 11.5 mph 19.6 mph N/A   Scattered Clouds
11:54 AM 73.0 °F 55.9 °F 55% 30.02 in 10.0 mi North 11.5 mph 18.4 mph N/A   Scattered Clouds
12:54 PM 73.0 °F 55.9 °F 55% 30.02 in 10.0 mi NNW 9.2 mph - N/A   Scattered Clouds
1:54 PM 75.0 °F 57.0 °F 53% 30.02 in 10.0 mi North 4.6 mph - N/A   Mostly Cloudy
2:54 PM 75.0 °F 55.9 °F 51% 30.00 in 10.0 mi NNW 9.2 mph - N/A   Partly Cloudy
3:54 PM 75.0 °F 55.9 °F 51% 30.01 in 10.0 mi NNE 8.1 mph - N/A   Mostly Cloudy
4:54 PM 73.9 °F 55.9 °F 53% 30.00 in 10.0 mi Variable 4.6 mph - N/A   Partly Cloudy
5:54 PM 72.0 °F 57.0 °F 59% 30.02 in 10.0 mi NNW 5.8 mph - N/A   Clear
6:54 PM 73.9 °F 57.0 °F 55% 30.02 in 10.0 mi North 4.6 mph - N/A   Partly Cloudy
7:54 PM 72.0 °F 55.9 °F 57% 30.01 in 10.0 mi North 3.5 mph - N/A   Clear
8:54 PM 68.0 °F 55.9 °F 65% 30.03 in 10.0 mi Calm Calm - N/A   Clear
9:54 PM 64.0 °F 55.9 °F 75% 30.05 in 10.0 mi NNW 3.5 mph - N/A   Clear
10:54 PM 63.0 °F 55.0 °F 75% 30.06 in 10.0 mi Calm Calm - N/A   Clear
11:54 PM 63.0 °F 55.9 °F 78% 30.06 in 10.0 mi NE 3.5 mph - N/A   Clear